VE3ZEB-1 Weather Reports


Display with metric or nautical units.
time (UTC)temp
F
wind
direction
speed
MPH
gust
MPH
rain 1hr
in
rain 24hr
in
rain mn
in
humidity
%
barometer
mb
20260507075020 39 39 0.0 2.0 0.00 0.00 0.00 72 679.2
20260507074019 39 6 2.0 4.0 0.00 0.00 0.00 73 679.2
20260507073020 40 352 2.0 4.0 0.00 0.00 0.00 75 679.3
20260507072020 40 0.0 0.0 0.00 0.00 0.00 76 679.3
20260507071040 40 0.0 0.0 0.00 0.00 0.00 76 679.3
20260507070020 40 226 1.0 1.0 0.00 0.00 0.00 76 679.3
20260507065021 40 282 0.0 1.0 0.00 0.00 0.00 73 679.3
20260507064020 40 272 1.0 1.0 0.00 0.00 0.00 73 679.3
20260507063020 41 295 0.0 1.0 0.00 0.00 0.00 73 679.3
20260507062021 41 325 2.0 3.0 0.00 0.00 0.00 73 679.3
20260507061041 41 277 1.0 2.0 0.00 0.00 0.00 73 679.3
20260507060021 41 335 1.0 2.0 0.00 0.00 0.00 72 679.3
20260507055021 42 336 1.0 3.0 0.00 0.00 0.00 73 679.3
20260507054021 42 218 1.0 3.0 0.00 0.00 0.00 73 679.3
20260507053021 42 214 2.0 3.0 0.00 0.00 0.00 72 679.3
20260507052021 42 214 3.0 4.0 0.00 0.00 0.00 72 679.3
20260507051022 42 225 2.0 3.0 0.00 0.00 0.00 72 679.3
20260507050022 42 225 2.0 4.0 0.00 0.00 0.00 70 679.3
20260507045102 42 221 3.0 5.0 0.00 0.00 0.00 69 679.3
20260507044042 42 219 3.0 4.0 0.00 0.00 0.00 68 679.3
20260507043043 42 222 3.0 5.0 0.00 0.00 0.00 67 679.3
20260507042022 42 224 2.0 4.0 0.00 0.00 0.00 66 679.3
20260507041022 42 221 3.0 4.0 0.00 0.00 0.00 65 679.3
20260507040023 42 218 2.0 4.0 0.00 0.00 0.00 65 679.3
20260507035022 42 215 3.0 3.0 0.00 0.00 0.00 65 679.3
20260507034023 42 221 2.0 3.0 0.00 0.00 0.00 68 679.3
20260507033023 42 202 1.0 1.0 0.00 0.00 0.00 69 679.3
20260507032023 42 0.0 0.0 0.00 0.00 0.00 66 679.3
20260507031023 42 0.0 0.0 0.00 0.00 0.00 68 679.3
20260507030023 42 0.0 0.0 0.00 0.00 0.00 65 679.4
20260507025024 42 0.0 0.0 0.00 0.00 0.00 64 679.4
20260507024024 43 0.0 0.0 0.00 0.00 0.00 64 679.4
20260507023024 43 167 0.0 1.0 0.00 0.00 0.00 64 679.4
20260507022024 43 167 0.0 1.0 0.00 0.00 0.00 63 679.4
20260507021024 43 184 1.0 2.0 0.00 0.00 0.00 63 679.4
20260507020125 44 0.0 0.0 0.00 0.00 0.00 60 679.4
20260507015024 44 0.0 0.0 0.00 0.00 0.00 59 679.4
20260507014045 45 0.0 0.0 0.00 0.00 0.00 59 679.4
20260507013025 45 0.0 0.0 0.00 0.00 0.00 57 679.4
20260507012025 45 0.0 0.0 0.00 0.00 0.00 56 679.4
20260507010025 46 0.0 0.0 0.00 0.00 0.00 55 679.5
20260507005025 47 272 0.0 1.0 0.00 0.00 0.00 55 679.5
20260507004025 47 274 0.0 1.0 0.00 0.00 0.00 53 679.5
20260507003026 47 0.0 0.0 0.00 0.00 0.00 52 679.5
20260507002025 48 0.0 0.0 0.00 0.00 0.00 51 679.5
20260507001026 49 0 0.0 0.0 0.00 0.00 0.00 51 679.5
20260507000026 49 321 1.0 2.0 0.00 0.00 0.00 49 679.5
20260506235026 50 321 0.0 3.0 0.00 0.00 0.00 47 679.5
20260506234026 50 251 0.0 1.0 0.00 0.00 0.00 47 679.5
20260506233026 50 319 3.0 5.0 0.00 0.00 0.00 47 679.5
20260506232026 51 316 1.0 3.0 0.00 0.00 0.00 46 679.6
20260506231026 51 336 2.0 4.0 0.00 0.00 0.00 46 679.6
20260506230027 51 324 3.0 4.0 0.00 0.00 0.00 44 679.6
20260506225027 52 316 2.0 4.0 0.00 0.00 0.00 44 679.6
20260506224027 53 325 4.0 7.0 0.00 0.00 0.00 43 679.6
20260506223027 53 341 3.0 6.0 0.00 0.00 0.00 42 679.6
20260506222027 53 331 3.0 6.0 0.00 0.00 0.00 44 679.6
20260506221048 53 324 3.0 5.0 0.00 0.00 0.00 44 679.6
20260506220028 54 329 5.0 9.0 0.00 0.00 0.00 43 679.6
20260506215028 53 348 3.0 7.0 0.00 0.00 0.00 42 679.6
20260506214028 53 333 3.0 6.0 0.00 0.00 0.00 43 679.6
20260506213048 53 335 4.0 5.0 0.00 0.00 0.00 41 679.6
20260506212028 53 334 4.0 7.0 0.00 0.00 0.00 42 679.6
20260506211029 54 324 4.0 6.0 0.00 0.00 0.00 42 679.6
20260506210028 53 321 4.0 7.0 0.00 0.00 0.00 42 679.6
20260506205029 53 345 3.0 6.0 0.00 0.00 0.00 42 679.6
20260506204017 52 350 4.0 5.0 0.00 0.00 0.00 42 679.6
20260506203018 52 342 4.0 8.0 0.00 0.00 0.00 44 679.6
20260506202017 52 343 4.0 7.0 0.00 0.00 0.00 43 679.6
20260506201018 52 340 4.0 10.0 0.00 0.00 0.00 44 679.6
20260506200018 52 326 5.0 10.0 0.00 0.00 0.00 47 679.6
20260506195018 52 343 4.0 8.0 0.00 0.00 0.00 47 679.6
20260506194038 52 338 4.0 9.0 0.00 0.00 0.00 46 679.6
20260506193018 52 337 3.0 6.0 0.00 0.00 0.00 47 679.6
20260506192018 53 340 5.0 9.0 0.00 0.00 0.00 48 679.6
20260506191018 52 334 6.0 8.0 0.00 0.00 0.00 47 679.6
20260506190019 53 325 6.0 14.0 0.00 0.00 0.00 47 679.6
20260506185019 53 332 6.0 12.0 0.00 0.01 0.00 48 679.6
20260506184019 53 345 5.0 9.0 0.00 0.02 0.00 48 679.6
20260506183019 53 342 5.0 9.0 0.00 0.02 0.00 49 679.6
20260506182019 53 337 5.0 11.0 0.00 0.02 0.00 48 679.6
20260506181019 55 328 7.0 12.0 0.00 0.04 0.00 48 679.6
20260506180020 55 332 6.0 10.0 0.00 0.04 0.00 47 679.6
20260506175020 56 325 5.0 10.0 0.00 0.05 0.00 46 679.6
20260506174020 57 328 6.0 18.0 0.00 0.05 0.00 47 679.7
20260506173020 57 325 7.0 10.0 0.00 0.05 0.00 47 679.7
20260506172020 58 336 5.0 9.0 0.00 0.05 0.00 47 679.7
20260506171041 58 351 5.0 7.0 0.00 0.05 0.00 46 679.7
20260506165021 60 336 6.0 9.0 0.00 0.05 0.00 49 679.8
20260506164021 60 336 5.0 8.0 0.00 0.05 0.00 50 679.8
20260506163020 60 335 6.0 12.0 0.00 0.05 0.00 50 679.8
20260506162021 60 337 3.0 7.0 0.00 0.05 0.00 52 679.7
20260506161021 60 355 5.0 11.0 0.00 0.05 0.00 53 679.7
20260506160021 59 358 5.0 8.0 0.00 0.05 0.00 54 679.7
20260506155021 59 5 3.0 8.0 0.00 0.05 0.00 56 679.7
20260506154022 59 357 5.0 11.0 0.00 0.05 0.00 59 679.7
20260506153102 57 335 5.0 10.0 0.00 0.05 0.00 61 679.6
20260506152021 56 330 5.0 11.0 0.00 0.05 0.00 63 679.6
20260506151042 57 338 4.0 9.0 0.00 0.05 0.00 63 679.6
20260506150022 56 322 5.0 6.0 0.00 0.05 0.00 66 679.6
20260506145022 55 359 4.0 6.0 0.00 0.05 0.00 68 679.6
20260506144023 53 356 4.0 7.0 0.00 0.05 0.00 67 679.5
20260506143042 53 326 3.0 6.0 0.00 0.05 0.00 72 679.5
20260506142023 52 344 4.0 7.0 0.00 0.05 0.00 73 679.5
20260506141023 51 358 4.0 7.0 0.00 0.05 0.00 75 679.5
20260506140023 49 357 4.0 7.0 0.00 0.05 0.00 77 679.4
20260506135043 48 13 3.0 5.0 0.00 0.05 0.00 82 679.4
20260506134024 47 327 3.0 6.0 0.00 0.05 0.00 86 679.4
20260506133023 47 330 3.0 5.0 0.00 0.05 0.00 88 679.4
20260506132023 46 340 3.0 7.0 0.00 0.05 0.00 89 679.4
20260506131024 46 349 2.0 4.0 0.00 0.05 0.00 90 679.3
20260506130104 45 335 3.0 5.0 0.00 0.05 0.00 91 679.3
20260506125024 44 315 4.0 6.0 0.00 0.05 0.00 90 679.3
20260506124024 44 320 2.0 3.0 0.00 0.05 0.00 90 679.3
20260506123024 44 305 1.0 2.0 0.00 0.05 0.00 90 679.3
20260506122044 43 297 1.0 2.0 0.00 0.05 0.00 90 679.3
20260506121025 43 307 1.0 2.0 0.00 0.05 0.00 90 679.3
20260506120024 43 275 1.0 3.0 0.00 0.05 0.00 90 679.3
20260506115045 43 300 1.0 3.0 0.00 0.05 0.00 90 679.3
20260506114025 43 257 1.0 3.0 0.00 0.05 0.00 90 679.3
20260506113025 44 287 1.0 2.0 0.00 0.05 0.00 90 679.3
20260506112025 44 275 1.0 3.0 0.00 0.05 0.00 90 679.3
20260506111025 44 264 1.0 2.0 0.00 0.05 0.00 89 679.3
20260506110045 44 299 0.0 2.0 0.00 0.05 0.00 89 679.3
20260506105025 45 305 1.0 3.0 0.00 0.05 0.00 90 679.3
20260506104026 45 276 1.0 2.0 0.00 0.05 0.00 90 679.3
20260506103025 45 249 1.0 3.0 0.00 0.05 0.00 93 679.3
20260506102026 46 225 2.0 5.0 0.00 0.05 0.00 94 679.3
20260506101026 46 222 2.0 4.0 0.00 0.05 0.00 94 679.3
20260506100026 46 220 3.0 5.0 0.00 0.05 0.00 94 679.3
20260506095026 46 227 3.0 5.0 0.00 0.05 0.00 94 679.3
20260506094026 46 239 2.0 4.0 0.00 0.05 0.00 94 679.3
20260506093026 46 284 0.0 2.0 0.00 0.05 0.00 94 679.3
20260506092027 46 248 1.0 2.0 0.00 0.05 0.00 95 679.3
20260506091027 46 201 4.0 5.0 0.00 0.05 0.00 95 679.3
20260506090047 46 206 3.0 4.0 0.00 0.05 0.00 95 679.3
20260506085027 46 272 1.0 1.0 0.00 0.05 0.00 95 679.3
20260506084027 46 195 5.0 7.0 0.00 0.05 0.00 95 679.3
20260506083027 46 198 4.0 6.0 0.00 0.05 0.00 96 679.3
20260506082028 46 188 5.0 6.0 0.00 0.05 0.00 96 679.3
20260506081027 46 191 4.0 7.0 0.00 0.05 0.00 97 679.3